Gulf Shores, AL

6:57 AM CST on February 14, 2016 (GMT -0600)
Edwards

Weather History for KJKA - February, 2013

Change the Weather History Date:

Monday, February 4, 2013

  Actual Average (KPNS) Record (KPNS)
Temperature  
Mean Temperature 53 °F 53 °F  
Max Temperature 64 °F 62 °F 79 °F (1957)
Min Temperature 42 °F 44 °F 17 °F (1996)
Degree Days  
Heating Degree Days 12 12  
Month to date heating degree days 51  
Since 1 July heating degree days 1062  
Cooling Degree Days 0 0  
Month to date cooling degree days 0  
Year to date cooling degree days 6  
Growing Degree Days 3 (Base 50)    
Moisture  
Dew Point 43 °F    
Average Humidity 66    
Maximum Humidity 93    
Minimum Humidity 45    
Precipitation  
Precipitation 0.00 in 0.17 in 2.47 in (1960)
Month to date precipitation 0.70  
Year to date precipitation 5.33  
Snow  
Snow 0.00 in 0.00 in - ()
Month to date snowfall 0.0  
Since 1 July snowfall 0.0  
Snow Depth -    
Sea Level Pressure  
Sea Level Pressure 30.07 in    
Wind  
Wind Speed 2 mph (East)    
Max Wind Speed 7 mph    
Max Gust Speed -    
Visibility 10 miles    
Events Rain    
T = Trace of Precipitation, MM = Missing Value Source: NWS Daily Summary

Daily Weather History Graph

Daily Weather History Graph

Search for Another Location

Airport or City:

Trip Planner

Search our weather history database for the weather conditions in past years. The results will help you decide how hot, cold, wet, or windy it might be!

Date:

Astronomy

Feb. 04, 2013 Rise Set
Actual Time 6:39 AM CST 5:30 PM CST
Civil Twilight 6:14 AM CST 5:55 PM CST
Nautical Twilight 5:45 AM CST 6:23 PM CST
Astronomical Twilight 5:17 AM CST 6:52 PM CST
Moon 1:09 AM CST (2/4) 11:59 AM CST (2/4)
Length of Visible Light 11h 40m
Length of Day
10h 50m
Last Quarter, 37% of the Moon is Illuminated
Feb 4
Last Quarter
Feb 10
New
Feb 17
First Quarter
Feb 25
Full
Mar 4
Last Quarter

Hourly Weather History & Observations

Time (CST) Temp. Windchill Dew Point Humidity Pressure Visibility Wind Dir Wind Speed Gust Speed Precip Events Conditions
12:15 AM 50.0 °F - 46.4 °F 87% 30.13 in 10.0 mi NNW 3.5 mph - N/A   Clear
12:35 AM 50.0 °F - 46.4 °F 87% 30.12 in 10.0 mi Calm Calm - N/A   Clear
12:55 AM 44.6 °F - 42.8 °F 93% 30.12 in 2.0 mi Calm Calm - N/A   Clear
1:15 AM 44.6 °F - 42.8 °F 93% 30.12 in 1.2 mi Calm Calm - N/A   Mist
1:35 AM 42.8 °F - 41.0 °F 93% 30.12 in 4.0 mi Calm Calm - N/A   Clear
1:55 AM 46.4 °F - 42.8 °F 87% 30.12 in 10.0 mi Calm Calm - N/A   Clear
2:15 AM 42.8 °F - 41.0 °F 93% 30.12 in 10.0 mi Calm Calm - N/A   Clear
2:35 AM 42.8 °F - 39.2 °F 87% 30.11 in 10.0 mi Calm Calm - N/A   Clear
2:55 AM 42.8 °F - 41.0 °F 93% 30.11 in 10.0 mi Calm Calm - N/A   Clear
3:15 AM 44.6 °F 43.1 °F 37.4 °F 76% 30.10 in 10.0 mi North 3.5 mph - N/A   Clear
4:55 AM 44.6 °F - 33.8 °F 66% 30.10 in 10.0 mi Calm Calm - N/A   Clear
5:15 AM 44.6 °F - 33.8 °F 66% 30.10 in 10.0 mi Calm Calm - N/A   Clear
5:35 AM 44.6 °F 43.1 °F 33.8 °F 66% 30.10 in 10.0 mi NE 3.5 mph - N/A   Clear
5:55 AM 44.6 °F - 33.8 °F 66% 30.10 in 10.0 mi Calm Calm - N/A   Clear
6:15 AM 44.6 °F - 33.8 °F 66% 30.10 in 10.0 mi Calm Calm - N/A   Clear
6:55 AM 44.6 °F - 35.6 °F 71% 30.11 in 10.0 mi Calm Calm - N/A   Clear
7:15 AM 44.6 °F 43.1 °F 35.6 °F 71% 30.12 in 10.0 mi North 3.5 mph - N/A   Clear
7:35 AM 44.6 °F 43.1 °F 35.6 °F 71% 30.12 in 10.0 mi NNE 3.5 mph - N/A   Clear
7:55 AM 46.4 °F 44.3 °F 35.6 °F 66% 30.11 in 10.0 mi NE 4.6 mph - N/A   Clear
8:15 AM 48.2 °F - 35.6 °F 62% 30.12 in 10.0 mi NE 3.5 mph - N/A   Clear
8:35 AM 50.0 °F - 37.4 °F 62% 30.10 in 10.0 mi ENE 4.6 mph - N/A   Clear
8:55 AM 51.8 °F - 39.2 °F 62% 30.12 in 10.0 mi Calm Calm - N/A   Clear
9:15 AM 53.6 °F - 41.0 °F 62% 30.13 in 10.0 mi Calm Calm - N/A   Clear
9:35 AM 53.6 °F - 41.0 °F 62% 30.13 in 10.0 mi Calm Calm - N/A   Clear
9:55 AM 55.4 °F - 41.0 °F 58% 30.12 in 10.0 mi East 3.5 mph - N/A   Clear
10:15 AM 55.4 °F - 41.0 °F 58% 30.13 in 10.0 mi East 3.5 mph - N/A   Clear
10:35 AM 59.0 °F - 42.8 °F 55% 30.13 in 10.0 mi Calm Calm - N/A   Clear
10:55 AM 60.8 °F - 42.8 °F 52% 30.12 in 10.0 mi East 5.8 mph - N/A   Clear
11:15 AM 62.6 °F - 42.8 °F 48% 30.12 in 10.0 mi North - - N/A   Clear
11:35 AM 62.6 °F - 41.0 °F 45% 30.11 in 10.0 mi Calm Calm - N/A   Clear
11:55 AM 62.6 °F - 42.8 °F 48% 30.11 in 10.0 mi SSE 4.6 mph - N/A   Clear
12:15 PM 62.6 °F - 41.0 °F 45% 30.09 in 10.0 mi SSE 5.8 mph - N/A   Clear
12:35 PM 62.6 °F - 41.0 °F 45% 30.09 in 10.0 mi South 3.5 mph - N/A   Clear
12:55 PM 62.6 °F - 41.0 °F 45% 30.07 in 10.0 mi SSE 3.5 mph - N/A   Clear
1:15 PM 62.6 °F - 42.8 °F 48% 30.06 in 10.0 mi SSE 5.8 mph - N/A   Clear
1:35 PM 62.6 °F - 44.6 °F 52% 30.06 in 10.0 mi SSE 3.5 mph - N/A   Clear
1:55 PM 62.6 °F - 42.8 °F 48% 30.05 in 10.0 mi Calm Calm - N/A   Clear
2:15 PM 62.6 °F - 42.8 °F 48% 30.05 in 10.0 mi ESE 3.5 mph - N/A   Clear
2:35 PM 62.6 °F - 42.8 °F 48% 30.05 in 10.0 mi SSE 3.5 mph - N/A   Clear
2:55 PM 64.4 °F - 42.8 °F 45% 30.04 in 10.0 mi SE 4.6 mph - N/A   Clear
3:15 PM 64.4 °F - 42.8 °F 45% 30.05 in 10.0 mi SSE 5.8 mph - N/A   Clear
3:35 PM 64.4 °F - 42.8 °F 45% 30.04 in 10.0 mi SE 3.5 mph - N/A   Clear
3:55 PM 62.6 °F - 42.8 °F 48% 30.03 in 10.0 mi East 6.9 mph - N/A   Clear
4:15 PM 62.6 °F - 42.8 °F 48% 30.04 in 10.0 mi East 4.6 mph - N/A   Clear
4:35 PM 62.6 °F - 44.6 °F 52% 30.03 in 10.0 mi East 4.6 mph - N/A   Clear
4:55 PM 60.8 °F - 44.6 °F 55% 30.02 in 10.0 mi East 6.9 mph - N/A   Clear
5:15 PM 59.0 °F - 44.6 °F 59% 30.02 in 10.0 mi East 4.6 mph - N/A   Clear
5:35 PM 59.0 °F - 46.4 °F 63% 30.03 in 10.0 mi East 4.6 mph - N/A   Clear
5:55 PM 59.0 °F - 46.4 °F 63% 30.03 in 10.0 mi ENE 4.6 mph - N/A   Scattered Clouds
6:15 PM 59.0 °F - 46.4 °F 63% 30.03 in 10.0 mi East 3.5 mph - N/A   Scattered Clouds
6:35 PM 57.2 °F - 46.4 °F 67% 30.03 in 10.0 mi East 3.5 mph - N/A   Scattered Clouds
6:55 PM 57.2 °F - 46.4 °F 67% 30.03 in 10.0 mi East 4.6 mph - N/A   Clear
7:15 PM 57.2 °F - 50.0 °F 77% 30.03 in 10.0 mi East 5.8 mph - N/A   Clear
7:35 PM 57.2 °F - 50.0 °F 77% 30.03 in 10.0 mi East 4.6 mph - N/A   Mostly Cloudy
7:55 PM 59.0 °F - 51.8 °F 77% 30.03 in 10.0 mi ESE 6.9 mph - N/A Rain Light Rain
8:15 PM 59.0 °F - 51.8 °F 77% 30.03 in 10.0 mi East 5.8 mph - N/A   Mostly Cloudy
8:35 PM 59.0 °F - 51.8 °F 77% 30.02 in 10.0 mi East 5.8 mph - N/A   Overcast
8:55 PM 59.0 °F - 51.8 °F 77% 30.02 in 10.0 mi East 4.6 mph - N/A   Overcast
9:15 PM 59.0 °F - 50.0 °F 72% 30.02 in 10.0 mi East 4.6 mph - N/A   Overcast
9:35 PM 60.8 °F - 50.0 °F 68% 30.03 in 10.0 mi ESE 3.5 mph - N/A   Mostly Cloudy
9:55 PM 59.0 °F - 50.0 °F 72% 30.01 in 10.0 mi SE 5.8 mph - N/A   Mostly Cloudy
10:15 PM 60.8 °F - 50.0 °F 68% 30.01 in 10.0 mi SE 4.6 mph - N/A   Mostly Cloudy
10:35 PM 59.0 °F - 51.8 °F 77% 30.01 in 10.0 mi SE 3.5 mph - N/A   Overcast
10:55 PM 59.0 °F - 51.8 °F 77% 30.01 in 10.0 mi Calm Calm - N/A   Overcast
11:15 PM 60.8 °F - 51.8 °F 72% 30.00 in 10.0 mi Calm Calm - N/A   Overcast
11:35 PM 59.0 °F - 51.8 °F 77% 29.99 in 10.0 mi Calm Calm - N/A   Overcast
11:55 PM 57.2 °F - 51.8 °F 82% 30.00 in 10.0 mi Calm Calm - N/A   Overcast